Location: Chakepay
(13.3931°S, 72.1925°W)
Time: 10:09:28
(UTC+00:00)

ATLAS CENTAUR R/B - Pass Details

Date: 15 November 2019
Orbit: 457 x 691 km, 64.7° (Epoch: 30 November)

Event Time Altitude Azimuth Distance (km) Brightness Sun altitude
Rises 09:14:33 0° 219° (SW) 2,906 4.8 -13.7°
Reaches altitude 10° 09:16:57 10° 228° (SW) 2,031 4.0 -13.2°
Maximum altitude 09:21:05 32° 291° (WNW) 1,126 2.3 -12.3°
Drops below altitude 10° 09:25:22 10° 354° (N) 2,106 4.0 -11.3°
Sets 09:27:55 0° 4° (N) 3,031 4.9 -10.7°
